Location: Burland Observatory
(39.4088°N, 105.4217°W)
Time: 10:22:39
(UTC-07:00)

Vanguard 3 - Pass Details

Date: 11 December 2019
Orbit: 507 x 3263 km, 33.4° (Epoch: 24 January)

Event Time Altitude Azimuth Distance (km) Brightness Sun altitude
Rises 08:26:59 0° 248° (WSW) 3,798 10.3 10.9°
Reaches altitude 10° 08:29:11 10° 244° (WSW) 3,102 10.0 11.3°
Maximum altitude 08:37:02 60° 166° (SSE) 1,931 9.7 12.4°
Drops below altitude 10° 08:51:07 10° 92° (E) 5,346 12.1 14.3°
Sets 08:56:12 0° 90° (E) 6,707 12.5 14.9°
